Location: Newark
(46.2358°N, 112.1211°W)
Time: 09:20:26
(UTC+00:00)

DELFI C3 - Pass Details

Date: 12 July 2020
Orbit: 533 x 552 km, 97.4° (Epoch: 12 August)

Event Time Altitude Azimuth Distance (km) Brightness Sun altitude
Rises 03:49:32 0° 187° (S) 2,714 ? -5.0°
Reaches altitude 10° 03:51:47 10° 196° (SSW) 1,826 ? -5.3°
Maximum altitude 03:55:25 35° 263° (W) 904 ? -5.8°
Drops below altitude 10° 03:59:06 10° 330° (NNW) 1,841 ? -6.3°
Sets 04:01:23 0° 340° (NNW) 2,740 ? -6.6°
